RWASAT-1 (44790 NORAD) Tracking and Keplerian Element Data

This shows tracking and keplerian element data for the satellite.

Feedback or suggestion? Click here.




ElementValue
Catalog44790
NameRWASAT-1
Epoch Orbit2063
Epoch Day92.25026817
Epoch Year2020
RAAN7.3002
Inclination51.6459
Eccentricity0.001005
Argument of Perigee90.7001
Mean Anonmoly45.0076
Mean Motion15.5201244
Decay Rate-4.75E-06
L11 44790U 98067QV 20092.25026817 -.00000475 00000-0 00000+0 0 9994
L22 44790 51.6459 7.3002 0010050 90.7001 45.0076 15.52012440 20638

Live tracking and technical data element details for RWASAT-1 (NORAD 44790). RWASAT-1 can be tracked NOW for your location showing map with azimuth and elevation plus other details from your city location.

Track the satellite on the map from your city or location and see movement details for azimuth, elevation, latitude, longitude, range, height, and movement on the map or in text.







IsCatalogInMostPopularTable: catalog: 44790, numindb: 44
Update: records affected: 1



GetName: 44790 RWASAT-1

Hit Count: updated at: Sun, 05 Apr 2020 19:24:01 GMT